Morgantown, WV

1:04 AM EDT on May 01, 2017 (GMT -0400)
Morgantown Municipal-Hart

Weather History for KMGW - February, 2005

Change the Weather History Date:

Tuesday, February 15, 2005

  Actual Average Record
Temperature  
Mean Temperature 52 °F 34 °F  
Max Temperature 62 °F 43 °F 72 °F (1954)
Min Temperature 42 °F 25 °F -2 °F (2015)
Degree Days  
Heating Degree Days 13 31  
Month to date heating degree days 480  
Since 1 July heating degree days 3507  
Cooling Degree Days 0 0  
Month to date cooling degree days 0  
Year to date cooling degree days 0  
Growing Degree Days 2 (Base 50)    
Moisture  
Dew Point 35 °F    
Average Humidity 57    
Maximum Humidity 82    
Minimum Humidity 32    
Precipitation  
Precipitation 0.00 in 0.09 in 1.75 in (1989)
Month to date precipitation 1.35  
Year to date precipitation 4.16  
Sea Level Pressure  
Sea Level Pressure 30.04 in    
Wind  
Wind Speed 7 mph (SSW)    
Max Wind Speed 13 mph    
Max Gust Speed 21 mph    
Visibility 10 miles    
Events      
T = Trace of Precipitation, MM = Missing Value Source: NWS Daily Summary

Daily Weather History Graph

Daily Weather History Graph

Search for Another Location

Airport or City:

Trip Planner

Search our weather history database for the weather conditions in past years. The results will help you decide how hot, cold, wet, or windy it might be!

Date:

Astronomy

Feb. 15, 2005 Rise Set
Actual Time 7:11 AM EST 5:56 PM EST
Civil Twilight 6:44 AM EST 6:23 PM EST
Nautical Twilight 6:12 AM EST 6:55 PM EST
Astronomical Twilight 5:41 AM EST 7:26 PM EST
Moon 10:43 AM EST (2/15) 12:43 AM EST (2/15)
Length of Visible Light 11h 39m
Length of Day
10h 44m
Waxing Crescent, 47% of the Moon is Illuminated
Feb 15
Waxing Crescent
Feb 15
First Quarter
Feb 23
Full
Mar 3
Last Quarter
Mar 10
New

Hourly Weather History & Observations

Time (EST) Temp. Windchill Dew Point Humidity Pressure Visibility Wind Dir Wind Speed Gust Speed Precip Events Conditions
12:14 AM 46.4 °F 41.5 °F 35.6 °F 66% 30.03 in 10.0 mi WSW 10.4 mph 17.3 mph N/A   Overcast
12:53 AM 46.9 °F - 35.1 °F 63% 30.07 in 10.0 mi WSW 8.1 mph - N/A   Overcast
1:53 AM 46.0 °F 41.4 °F 35.1 °F 66% 30.08 in 10.0 mi WSW 9.2 mph 17.3 mph N/A   Overcast
2:53 AM 46.0 °F 43.9 °F 36.0 °F 68% 30.09 in 10.0 mi Variable 4.6 mph - N/A   Overcast
3:53 AM 45.0 °F 41.8 °F 36.0 °F 71% 30.10 in 10.0 mi WSW 5.8 mph - N/A   Mostly Cloudy
4:53 AM 45.0 °F 41.8 °F 36.0 °F 71% 30.12 in 10.0 mi WSW 5.8 mph - N/A   Mostly Cloudy
5:53 AM 43.0 °F - 36.0 °F 76% 30.12 in 10.0 mi Calm Calm - N/A   Scattered Clouds
6:19 AM 42.8 °F 40.1 °F 35.6 °F 76% 30.11 in 10.0 mi SSW 4.6 mph - N/A   Mostly Cloudy
6:29 AM 42.8 °F 39.3 °F 35.6 °F 76% 30.11 in 10.0 mi SSW 5.8 mph - N/A   Scattered Clouds
6:53 AM 42.1 °F 39.2 °F 36.0 °F 79% 30.13 in 10.0 mi Variable 4.6 mph - N/A   Partly Cloudy
7:53 AM 42.1 °F 40.2 °F 37.0 °F 82% 30.15 in 10.0 mi SSW 3.5 mph - N/A   Partly Cloudy
8:53 AM 46.9 °F - 39.0 °F 74% 30.15 in 10.0 mi South 6.9 mph - N/A   Mostly Cloudy
9:53 AM 51.1 °F - 41.0 °F 68% 30.14 in 10.0 mi SSW 10.4 mph - N/A   Scattered Clouds
10:53 AM 53.1 °F - 41.0 °F 64% 30.14 in 10.0 mi SSW 10.4 mph 20.7 mph N/A   Mostly Cloudy
11:53 AM 57.0 °F - 39.0 °F 51% 30.12 in 10.0 mi SW 10.4 mph - N/A   Clear
12:53 PM 59.0 °F - 39.0 °F 48% 30.07 in 10.0 mi Variable 6.9 mph - N/A   Mostly Cloudy
1:53 PM 61.0 °F - 37.9 °F 42% 30.04 in 10.0 mi South 6.9 mph - N/A   Mostly Cloudy
2:53 PM 62.1 °F - 34.0 °F 35% 30.01 in 10.0 mi SW 6.9 mph - N/A   Clear
3:53 PM 61.0 °F - 36.0 °F 39% 30.01 in 10.0 mi South 12.7 mph - N/A   Mostly Cloudy
4:53 PM 62.1 °F - 32.0 °F 32% 29.98 in 10.0 mi SSW 5.8 mph - N/A   Clear
5:53 PM 60.1 °F - 30.0 °F 32% 29.98 in 10.0 mi SSW 5.8 mph - N/A   Mostly Cloudy
6:53 PM 55.9 °F - 30.0 °F 37% 29.97 in 10.0 mi Calm Calm - N/A   Clear
7:53 PM 51.1 °F - 30.0 °F 44% 29.94 in 10.0 mi SSE 4.6 mph - N/A   Clear
8:53 PM 55.0 °F - 28.9 °F 37% 29.91 in 10.0 mi SSW 3.5 mph - N/A   Clear
9:53 PM 53.1 °F - 30.9 °F 43% 29.89 in 10.0 mi SSW 4.6 mph - N/A   Clear
10:53 PM 54.0 °F - 32.0 °F 43% 29.87 in 10.0 mi SW 4.6 mph - N/A   Clear
11:53 PM 52.0 °F - 33.1 °F 49% 29.86 in 10.0 mi SSW 4.6 mph - N/A   Clear